EW0802 Weather Reports


time (UTC)temp
C
wind
direction
speed
KPH
gust
KPH
rain 1hr
cm
rain 24hr
cm
rain mn
cm
humidity
%
barometer
mb
20260506141529 12 133 0.0 3.2 0.00 0.00 0.00 83 1013.1
20260506140021 12 135 0.0 3.2 0.00 0.00 0.00 83 1013.0
20260506134520 12 134 0.0 4.8 0.00 0.00 0.00 82 1012.7
20260506133016 12 132 0.0 4.8 0.00 0.00 0.00 81 1012.5
20260506131515 12 136 0.0 4.8 0.00 0.00 0.00 80 1012.5
20260506130013 12 133 0.0 3.2 0.00 0.00 0.00 79 1011.8
20260506124509 12 133 0.0 3.2 0.00 0.00 0.00 78 1011.9
20260506123007 12 134 0.0 4.8 0.00 0.00 0.00 78 1011.7
20260506121513 13 132 0.0 3.2 0.00 0.00 0.00 77 1011.3
20260506120111 13 132 0.0 3.2 0.00 0.00 0.00 77 1011.2
20260506114559 13 133 0.0 3.2 0.00 0.00 0.00 78 1011.2
20260506113058 13 133 0.0 0.0 0.00 0.00 0.00 78 1010.7
20260506111554 13 134 0.0 1.6 0.00 0.00 0.00 77 1010.4
20260506110100 13 133 0.0 1.6 0.00 0.00 0.00 77 1010.5
20260506104602 14 134 1.6 3.2 0.00 0.00 0.00 77 1010.2
20260506103049 14 134 0.0 3.2 0.00 0.00 0.00 78 1009.7
20260506101543 14 134 0.0 0.0 0.00 0.00 0.00 77 1009.4
20260506100051 15 132 0.0 0.0 0.00 0.00 0.00 78 1009.2
20260506094541 15 134 0.0 3.2 0.00 0.00 0.00 77 1009.1
20260506093038 15 134 0.0 1.6 0.00 0.00 0.00 77 1008.9
20260506091537 15 134 0.0 3.2 0.00 0.00 0.00 77 1008.8
20260506090034 15 134 0.0 1.6 0.00 0.00 0.00 77 1008.8
20260506084607 15 134 0.0 1.6 0.00 0.00 0.00 77 1008.7
20260506083030 16 134 0.0 0.0 0.00 0.00 0.00 77 1008.5
20260506081536 16 134 0.0 0.0 0.00 0.00 0.00 77 1008.4
20260506073023 16 134 0.0 3.2 0.00 0.00 0.00 79 1008.2
20260506071526 16 134 0.0 3.2 0.00 0.00 0.00 78 1008.1
20260506061517 17 135 0.0 3.2 0.00 0.00 0.00 78 1008.0
20260506044503 18 134 0.0 0.0 0.00 0.00 0.00 76 1007.8
20260506043100 19 132 0.0 6.4 0.00 0.00 0.00 75 1008.0
20260506041607 20 134 0.0 3.2 0.00 0.00 0.00 75 1007.8
20260506040053 20 134 0.0 3.2 0.00 0.00 0.00 74 1007.6
20260506034555 20 133 0.0 3.2 0.00 0.00 0.00 74 1007.0
20260506033050 20 131 0.0 3.2 0.00 0.00 0.00 73 1006.8
20260506031547 20 134 0.0 1.6 0.00 0.00 0.00 71 1006.6
20260506030044 21 134 0.0 1.6 0.00 0.00 0.00 70 1006.4
20260506024542 21 134 0.0 3.2 0.00 0.00 0.00 70 1006.3
20260506023056 21 132 0.0 4.8 0.00 0.00 0.00 70 1006.0
20260506021603 22 132 0.0 3.2 0.00 0.00 0.00 69 1005.5
20260506020034 22 134 0.0 1.6 0.00 0.00 0.00 69 1004.8
20260506014534 23 132 0.0 3.2 0.00 0.00 0.00 69 1004.6
20260506013035 23 132 0.0 3.2 0.00 0.00 0.00 68 1004.6
20260506011533 24 132 0.0 3.2 0.00 0.00 0.00 66 1004.0
20260506010035 25 133 0.0 0.0 0.00 0.00 0.00 64 1004.1
20260506004534 25 134 0.0 0.0 0.00 0.00 0.00 65 1003.5
20260506003031 26 134 0.0 0.0 0.00 0.00 0.00 63 1003.7
20260506001531 26 133 0.0 0.0 0.00 0.00 0.00 61 1003.4
20260506000030 27 132 0.0 3.2 0.00 0.00 0.00 61 1003.5
20260505234529 28 133 0.0 6.4 0.00 0.00 0.00 59 1003.1
20260505233028 29 133 0.0 1.6 0.00 0.00 0.00 54 1002.7
20260505231545 30 135 0.0 1.6 0.00 0.00 0.00 53 1002.6
20260505230027 30 134 0.0 9.7 0.00 0.00 0.00 61 1002.4
20260505224527 31 37 0.0 4.8 0.00 0.00 0.00 59 1001.9
20260505223025 32 247 0.0 3.2 0.00 0.00 0.00 50 1001.9
20260505221525 32 214 1.6 4.8 0.00 0.00 0.00 51 1001.7
20260505220025 32 162 1.6 4.8 0.00 0.00 0.00 52 1001.8
20260505214622 32 175 1.6 6.4 0.00 0.00 0.00 54 1001.8
20260505213033 32 138 0.0 6.4 0.00 0.00 0.00 52 1001.9
20260505211519 32 258 0.0 8.0 0.00 0.00 0.00 53 1002.3
20260505210017 31 138 3.2 11.3 0.00 0.00 0.00 54 1002.4
20260505204515 32 186 1.6 6.4 0.00 0.00 0.00 54 1002.6
20260505203020 31 221 1.6 9.7 0.00 0.00 0.00 56 1002.7
20260505201527 31 277 1.6 11.3 0.00 0.00 0.00 56 1002.9
20260505200013 31 267 1.6 6.4 0.00 0.00 0.00 60 1003.1
20260505194509 31 329 3.2 11.3 0.00 0.00 0.00 61 1003.1
20260505193008 30 262 3.2 14.5 0.00 0.00 0.00 62 1003.3
20260505191510 30 140 3.2 17.7 0.00 0.00 0.00 63 1003.2
20260505190010 30 329 1.6 17.7 0.00 0.00 0.00 63 1003.2
20260505184507 30 157 4.8 14.5 0.00 0.00 0.00 62 1003.4
20260505183102 29 67 4.8 16.1 0.00 0.00 0.00 63 1003.5
20260505181558 28 109 1.6 11.3 0.00 0.00 0.00 66 1003.6
20260505180002 28 283 3.2 16.1 0.00 0.00 0.00 67 1003.7
20260505174604 28 55 1.6 11.3 0.00 0.00 0.00 67 1003.7
20260505173057 27 248 1.6 16.1 0.00 0.00 0.00 69 1003.8
20260505171553 27 254 3.2 16.1 0.00 0.00 0.00 71 1003.7
20260505170107 27 134 1.6 12.9 0.00 0.00 0.00 70 1003.8
20260505164550 27 106 4.8 11.3 0.00 0.00 0.00 71 1003.9
20260505163047 27 227 1.6 14.5 0.00 0.00 0.00 72 1003.7
20260505161546 26 205 3.2 16.1 0.00 0.00 0.00 74 1003.5
20260505153040 25 175 6.4 12.9 0.00 0.00 0.00 77 1003.6
20260505151553 25 316 1.6 17.7 0.00 0.00 0.00 77 1003.8